This demonstration page uses our WeatherBlox Daily Observations layout. Learn more.

Left ArrowRight Arrow

38.20091, -84.87328

Hourly Observations for October 13, 2021

Temp ( °F °C ) Dew Point ( °F °C ) Humidity (%) Winds ( mph kmh ) Pressure ( in mb ) Visibility ( mi km ) Precip ( " mm )
12:53 am 00:53 Clear 58 14.4 56 13.3 93 93 Calm 30.04 1017 10 16 0.00 0.00
1:53 am 01:53 Clear 57 13.9 55 12.8 93 93 Calm 30.03 1017 10 16 0.00 0.00
2:53 am 02:53 Clear 57 13.9 55 12.8 93 93 SE 3 6 30.03 1017 10 16 0.00 0.00
3:53 am 03:53 Clear 56 13.3 55 12.8 97 97 Calm 30.03 1017 9 14 0.00 0.00
4:53 am 04:53 Clear 55 12.8 54 12.2 96 96 Calm 30.04 1017 10 16 0.00 0.00
5:53 am 05:53 Clear 55 12.8 54 12.2 96 96 Calm 30.03 1017 10 16 0.00 0.00
6:53 am 06:53 Clear with Mist and Fog 56 13.3 55 12.8 97 97 Calm 30.04 1017 3 5 0.00 0.00
7:53 am 07:53 Sunny with Mist and Fog 54 12.2 53 11.7 97 97 Calm 30.05 1018 3 5 0.00 0.00
8:01 am 08:01 Sunny with Mist and Fog 55 12.8 53 11.7 93 93 Calm 30.06 1018 3 4 0.00 0.00
8:08 am 08:08 Sunny 55 12.8 53 11.7 93 93 Calm 30.07 1018 8 13 0.00 0.00
8:53 am 08:53 Mostly Sunny 59 15 58 14.4 96 96 ESE 5 7 30.06 1018 7 11 0.00 0.00
9:09 am 09:09 Mostly Cloudy with Mist and Fog 59 15 58 14.4 96 96 SE 7 11 30.07 1018 2 2 0.00 0.00
9:12 am 09:12 Mostly Cloudy with Mist and Fog 59 15 58 14.4 96 96 SE 6 9 30.07 1018 1 1 0.00 0.00
9:36 am 09:36 Mostly Cloudy with Fog 60 15.6 59 15 96 96 SE 8 13 30.06 1018 0 0 0.00 0.00
9:53 am 09:53 Mostly Cloudy with Fog 60 15.6 60 15.6 100 100 SE 6 9 30.06 1018 0 0 0.00 0.00
10:42 am 10:42 Mostly Cloudy with Fog 62 16.7 62 16.7 100 100 SSE 5 7 30.07 1018 1 1 0.00 0.00
10:53 am 10:53 Cloudy with Mist and Fog 63 17.2 62 16.7 97 97 ESE 3 6 30.06 1018 1 1 0.00 0.00
10:59 am 10:59 Cloudy with Mist and Fog 63 17.2 63 17.2 100 100 SE 6 9 30.06 1018 1 2 0.00 0.00
11:13 am 11:13 Cloudy with Mist and Fog 64 17.8 63 17.2 96 96 SE 5 7 30.06 1018 3 5 0.00 0.00
11:53 am 11:53 Cloudy 68 20 66 18.9 93 93 VRB 5 7 30.05 1018 9 14 0.00 0.00
12:03 pm 12:03 Cloudy 68 20 66 18.9 93 93 SE 6 9 30.04 1017 9 14 0.00 0.00
12:29 pm 12:29 Cloudy 70 21.1 66 18.9 87 87 S 6 9 30.04 1017 10 16 0.00 0.00
12:53 pm 12:53 Cloudy 71 21.7 66 18.9 84 84 S 6 9 30.04 1017 10 16 0.00 0.00
1:50 pm 13:50 Mostly Cloudy 75 24 66 19 74 74 SE 5 7 30.00 1016 10 16 0.00 0.00
1:53 pm 13:53 Mostly Cloudy 75 23.9 66 18.9 74 74 ESE 3 6 30.01 1016 10 16 0.00 0.00
2:05 pm 14:05 Partly Cloudy 77 25 67 19.4 71 71 SSE 6 9 29.99 1015 10 16 0.00 0.00
2:17 pm 14:17 Mostly Cloudy 76 24.4 66 18.9 72 72 E 3 6 29.99 1016 10 16 0.00 0.00
2:53 pm 14:53 Cloudy 76 24.4 67 19.4 74 74 SSW 6 9 29.99 1016 10 16 0.00 0.00
3:04 pm 15:04 Cloudy 77 25 67 19.4 71 71 SSW 5 7 29.98 1015 10 16 0.00 0.00
3:37 pm 15:37 Cloudy 76 24.4 68 20 77 77 S 7 11 29.98 1015 10 16 0.00 0.00
3:53 pm 15:53 Cloudy 76 24.4 68 20 77 77 S 7 11 29.98 1015 10 16 0.00 0.00
4:53 pm 16:53 Cloudy 75 23.9 69 20.6 82 82 SSW 6 9 29.99 1016 10 16 0.00 0.00
5:37 pm 17:37 Cloudy with Light Rain 73 22.8 70 21.1 90 90 SSW 3 6 29.98 1015 2 3 0.03 0.76
5:45 pm 17:45 Cloudy 73 22.8 70 21.1 90 90 Calm 29.98 1015 8 13 0.03 0.76
5:53 pm 17:53 Cloudy 73 22.8 71 21.7 94 94 NW 3 6 30.00 1016 7 11 0.03 0.76
6:33 pm 18:33 Cloudy with Mist and Fog 72 22.2 71 21.7 97 97 Calm 29.99 1016 3 5 0.00 0.00
6:42 pm 18:42 Cloudy with Mist and Fog 73 22.8 71 21.7 94 94 Calm 29.98 1015 4 6 0.00 0.00
6:53 pm 18:53 Cloudy with Mist and Fog 73 22.8 71 21.7 94 94 Calm 30.00 1016 6 10 0.00 0.00
7:53 pm 19:53 Cloudy with Mist and Fog 72 22.2 71 21.7 97 97 Calm 30.00 1016 6 10 0.00 0.00
8:53 pm 20:53 Cloudy with Mist and Fog 71 21.7 70 21.1 96 96 ESE 5 7 29.99 1016 6 10 0.00 0.00
9:53 pm 21:53 Cloudy 72 22.2 70 21.1 94 94 SSE 5 7 29.99 1016 10 16 0.00 0.00
10:53 pm 22:53 Mostly Cloudy 71 21.7 70 21.1 96 96 SSE 3 6 29.99 1016 8 13 0.00 0.00
11:53 pm 23:53 Clear 69 20.6 68 20 96 96 S 3 6 29.98 1015 8 13 0.00 0.00

Powered by AerisWeather